Location: De Har
(53.3413°N, 6.6858°E)
Time: 16:54:15
(UTC+00:00)

Cosmos 1766 - Pass Details

Date: 22 April 2026
Orbit: 402 x 409 km, 82.5° (Epoch: 9 May)

Event Time Altitude Azimuth Distance (km) Brightness Sun altitude
Rises 00:20:48 0° 356° (N) 2,346 7.8 -23.7°
Reaches altitude 10° 00:23:00 10° 8° (N) 1,482 6.6 -23.6°
Enters shadow 00:25:40 29° 64° (ENE) 791 4.5 -23.5°
